Starlink 32445

operational
NORAD ID: 61546 Int'l Des: 2024-184 Owner: SPXS Country: US Constellation: starlink
LEOCIRCULAR

Über Starlink 32445

Beschreibung wird geladen...

Live-Position

3D-Globus wird geladen...

Nächste Überflüge

Höhenverlauf

Altitude vs Time

uPlot chart will show altitude changes over time

Zweizeiliger Elementsatz

1 61546U 24184Q 25259.88592336 -.00001502 00000-0 -38613-4 0 9993
2 61546 53.1597 101.4704 0001006 97.3341 262.7774 15.30180246 51893
Epoch: 16. Sept. 2025 • Age: 28 hours

Aktueller Status

Höhe 479.7 km
Geschwindigkeit 7.63 km/s
Subsatellitenpunkt 46.28°N, 123.53°E
Startdatum 15. Okt. 2024
Alter 0.9 years
Typ internet

Technische Details

Klassifizierung Payload
Masse 730.00 kg
Trockenmasse 700.00 kg
Gesamtmasse 730.00 kg
Länge 0.30 m
Durchmesser 4.10 m
Spannweite 29.00 m
Form Box + pan
Hersteller SPXS
Bus-Typ Starlink V2M
Phasenstatus In Orbit
Besitzer/Staat SPXS/US

Große Konstellationen

Loading constellations...